Theta_e
311 311 311 312 312 313 314 314 314 314 314 315 313 314 315 314 313 312 313 313 313 313 313 313 313 313 316 318 317 316 321 321 320 318 319 313 315 311 308 312 310 310 310 307 306
309 309 310 310 310 311 312 312 313 313 313 313 313 314 314 315 314 312 312 312 312 313 312 314 315 315 319 318 316 318 320 320 317 316 317 315 314 315 312 312 312 310 307 302 303
308 308 308 308 309 309 310 311 311 311 312 312 314 314 313 314 316 315 312 311 312 312 312 312 313 315 318 317 317 316 321 316 316 315 314 315 313 313 314 316 315 316 314 304 303
309 309 309 309 309 308 308 309 309 310 311 311 314 313 313 314 318 312 312 311 311 311 312 311 315 318 319 319 315 318 314 315 316 314 314 314 312 313 313 317 312 312 311 306 305
310 310 311 310 310 310 309 308 308 309 310 310 313 313 314 316 317 313 312 311 311 311 311 313 317 317 321 316 315 317 315 314 315 313 313 310 314 314 313 313 312 307 306 306 306
310 310 310 311 311 310 310 309 308 308 308 309 313 313 314 315 313 313 312 311 310 310 310 311 315 314 316 317 317 314 314 315 313 313 313 314 315 310 314 308 310 307 308 307 306
310 310 310 310 310 310 310 309 308 308 307 310 313 313 314 315 313 312 310 310 310 310 312 309 311 314 315 315 312 312 316 316 314 313 314 311 315 314 316 306 309 307 308 307 306
311 309 309 309 309 309 309 308 308 307 308 312 312 314 316 313 313 311 309 309 309 309 309 308 309 312 313 311 312 315 314 319 315 313 312 313 317 317 313 309 312 311 308 305 305
311 310 309 307 307 307 307 307 307 308 312 313 313 314 316 313 312 312 309 309 308 308 309 309 310 313 312 317 318 317 319 318 316 313 313 314 317 316 311 308 311 312 311 306 304
310 309 309 307 304 305 305 306 307 312 314 313 313 316 312 314 311 311 308 308 309 311 312 313 314 317 315 318 316 318 318 317 317 314 311 314 314 315 314 311 312 313 313 308 304
310 310 309 308 304 307 307 307 311 311 311 315 314 314 310 311 312 310 307 308 310 311 313 313 316 317 317 317 316 315 316 318 318 311 312 314 314 313 314 313 313 313 313 310 305
310 310 310 310 309 309 308 310 311 308 310 309 308 308 308 311 312 311 308 312 312 314 312 314 315 317 313 313 314 315 317 319 317 309 309 312 312 312 312 313 313 313 314 312 306
311 310 310 310 310 309 307 308 309 309 313 312 310 310 310 310 312 312 308 310 313 313 313 315 315 310 312 313 314 315 317 318 316 311 308 308 312 311 310 308 309 310 310 310 307
312 311 311 311 309 310 308 307 309 307 311 310 308 310 310 310 310 304 305 309 310 313 312 314 312 312 313 315 315 318 314 313 312 313 317 308 315 314 312 310 310 313 311 307 306
313 312 311 310 310 311 307 308 309 302 312 308 307 306 308 311 308 307 303 306 312 310 312 315 311 312 314 315 313 316 308 310 309 312 309 314 312 313 306 310 311 313 313 309 308
314 313 312 310 310 310 308 308 305 308 308 308 310 310 312 310 308 305 306 305 306 310 310 313 306 310 313 305 307 304 308 308 305 308 315 314 313 312 312 311 311 312 311 309 306
315 314 313 311 311 310 309 307 310 307 305 307 311 311 312 312 311 308 308 308 312 314 314 312 311 307 306 311 306 308 314 318 322 319 319 308 309 312 311 311 311 313 313 307 306
317 314 314 311 311 310 306 311 309 311 310 308 310 311 313 312 312 310 309 312 309 309 313 315 315 309 307 314 316 310 315 321 326 319 318 305 311 313 310 310 310 306 306 303 303
319 315 313 312 310 310 307 311 309 310 310 308 310 312 312 312 310 311 312 313 313 310 315 314 315 305 304 305 310 309 313 312 318 305 314 314 315 312 309 308 306 306 305 305 303
316 314 313 314 310 309 309 310 309 308 306 309 310 311 310 311 310 311 311 311 312 309 312 313 314 308 302 303 302 306 307 312 313 322 320 314 314 313 312 311 309 306 306 307 304
317 315 314 313 309 310 312 310 309 307 307 309 310 310 309 310 311 310 311 311 311 309 310 312 314 310 305 307 310 305 309 307 308 314 317 316 314 309 310 310 310 309 310 309 306
316 318 310 310 312 311 312 310 307 308 306 308 308 309 309 308 309 310 310 310 310 308 310 311 314 316 313 303 302 307 310 310 313 315 311 313 314 309 309 310 309 310 308 307 305
317 314 307 310 316 312 312 313 310 311 309 309 309 310 308 308 308 309 310 309 308 310 311 309 313 318 315 306 301 306 306 307 310 312 314 316 314 310 311 309 307 309 309 306 305
316 314 308 308 312 314 314 315 314 310 311 308 308 309 309 311 309 309 310 308 307 309 311 311 314 316 314 312 307 309 308 307 309 312 313 313 312 312 311 310 310 309 304 305 306
316 313 307 307 308 312 313 315 317 315 311 310 310 310 311 312 311 312 312 311 305 307 308 310 314 315 315 314 314 313 311 309 308 309 311 312 312 311 311 311 311 310 309 308 308
315 310 307 310 309 310 311 314 315 316 315 314 313 314 310 311 313 318 314 311 311 308 311 307 314 313 314 313 312 313 312 313 312 312 311 309 309 309 309 309 309 309 308 307 307
307 310 309 307 308 309 310 311 313 313 314 314 314 313 313 313 311 311 311 312 312 312 312 309 312 315 317 314 314 315 313 313 313 312 312 313 311 311 310 310 310 310 308 307 306
Wind_Speed
11 13 14 14 16 17 17 17 17 18 18 12 6 5 3 4 1 4 5 5 3 2 1 5 2 4 3 2 1 1 3 4 3 5 2 6 8 5 1 5 5 8 4 3 16
11 12 12 13 14 15 16 16 16 16 16 16 9 5 6 5 4 7 5 4 2 2 2 5 4 7 3 2 1 3 3 2 1 3 3 5 9 5 6 8 8 8 11 6 22
11 12 13 12 13 15 16 16 16 16 16 15 10 5 3 5 3 4 10 4 1 0 1 2 5 3 3 1 1 1 3 1 3 5 4 5 5 5 7 12 14 14 13 16 24
12 13 14 15 15 16 16 16 17 17 16 16 11 5 1 2 5 5 10 6 2 2 3 2 2 3 3 3 2 3 4 3 1 2 4 5 3 5 13 17 2 6 6 20 21
13 14 15 17 16 17 18 18 18 18 18 16 10 4 1 3 7 8 9 7 5 4 3 2 2 3 3 4 2 5 3 4 4 4 6 3 10 9 15 16 11 5 8 16 19
16 16 17 17 18 18 19 20 20 20 19 17 8 4 3 7 3 8 8 6 6 5 3 2 3 2 2 3 4 2 4 7 5 5 6 6 5 3 4 2 10 11 14 15 19
18 19 19 18 20 20 20 20 21 23 22 14 6 5 3 9 5 7 7 6 4 5 4 3 4 2 5 2 1 1 6 7 9 4 4 4 9 12 16 6 9 12 13 15 18
18 19 19 19 21 22 21 21 22 22 20 8 4 5 6 4 6 5 7 5 4 4 6 6 5 5 1 3 1 3 3 4 5 7 2 4 15 10 3 8 13 14 14 15 20
18 18 19 20 19 20 22 21 23 20 9 2 4 4 6 2 3 7 7 5 7 7 7 6 3 1 3 4 5 5 10 9 5 8 3 10 16 4 5 8 16 18 16 15 16
15 18 19 20 18 19 21 20 14 5 2 3 2 3 4 3 4 6 7 11 3 5 3 2 2 4 3 7 12 11 7 8 10 5 8 11 21 22 22 16 25 25 18 17 18
14 15 19 20 16 16 19 6 3 2 2 5 2 3 1 3 5 4 5 7 4 2 7 1 7 16 18 17 14 7 8 16 14 4 5 16 20 25 23 20 26 25 21 17 20
13 14 16 19 15 11 7 3 2 1 7 5 6 7 5 4 2 6 11 9 7 10 7 4 15 18 0 6 9 8 13 20 13 2 7 14 21 24 23 26 25 25 23 16 16
14 13 14 19 14 7 3 1 1 1 5 6 5 5 2 10 6 6 14 4 7 9 14 16 11 2 8 8 11 11 18 14 10 5 7 11 17 7 7 11 14 22 19 14 16
15 13 12 14 5 8 2 1 3 1 5 6 5 3 3 3 4 2 4 2 4 10 9 10 4 8 7 11 12 13 9 11 7 5 11 4 19 11 9 11 13 22 12 12 14
15 13 11 10 6 1 2 2 4 1 9 1 3 1 1 4 4 1 1 2 8 8 7 6 7 9 10 9 11 5 2 4 3 8 6 11 10 10 2 7 18 21 11 15 13
17 12 11 7 5 4 0 4 1 4 11 3 3 4 4 3 2 3 3 1 2 4 5 7 1 4 4 3 0 9 3 2 1 3 9 17 14 8 4 7 9 12 10 9 12
22 19 17 10 2 4 5 3 5 9 2 7 7 6 4 7 6 8 8 9 9 6 10 5 9 3 3 5 3 5 4 6 6 5 12 3 8 20 14 13 13 18 7 7 8
27 26 23 18 10 7 5 4 15 9 16 3 4 5 10 12 8 10 7 9 13 5 2 7 14 13 12 16 7 12 8 6 11 13 22 7 11 13 10 15 17 7 5 4 7
31 29 23 27 17 11 3 10 16 12 9 9 3 6 9 5 4 7 13 9 11 21 15 8 15 3 1 1 5 8 8 3 4 2 8 11 22 8 6 11 9 15 12 14 11
27 17 20 31 27 15 5 24 14 10 7 6 19 16 17 15 9 11 11 6 9 15 18 4 10 3 3 2 1 4 5 4 3 6 16 24 30 17 11 15 10 11 15 16 10
24 4 15 35 26 5 11 14 11 8 7 13 20 18 15 16 15 12 16 5 9 7 11 5 6 3 6 12 16 6 6 4 3 5 9 19 18 3 5 3 11 14 15 12 12
5 5 29 44 7 4 12 10 2 6 6 10 5 13 23 16 13 13 17 15 14 11 12 8 3 11 21 3 2 8 15 18 9 10 9 13 28 6 5 5 4 7 7 9 10
3 1 17 25 10 11 12 14 7 12 12 8 13 12 10 14 10 15 18 7 12 13 12 10 5 6 12 5 2 8 8 11 17 15 30 13 24 15 21 7 5 8 10 7 11
3 4 2 2 5 19 19 20 16 9 14 6 4 3 0 8 11 11 14 3 2 4 4 8 6 12 20 21 2 5 13 19 23 17 22 25 30 37 35 22 23 17 11 15 15
4 4 6 7 11 15 16 7 21 14 11 8 5 21 21 18 20 20 28 20 4 3 1 5 11 12 19 23 22 24 19 19 26 28 27 30 25 33 34 27 26 21 17 19 19
5 3 5 2 19 25 23 19 28 25 19 13 17 22 20 24 23 22 21 19 15 4 7 4 18 19 26 30 32 34 23 35 32 35 30 25 28 36 36 33 29 35 24 27 25
8 10 3 10 11 13 21 26 25 26 22 26 27 18 20 25 30 32 26 19 8 14 15 9 7 9 21 24 23 15 32 34 41 38 32 31 34 36 34 30 31 33 22 24 27
Wind_Direction
15 15 14 14 13 14 15 18 18 15 15 15 360 257 281 347 301 232 232 205 201 282 219 175 120 149 138 104 59 229 233 244 227 196 150 161 205 166 152 205 208 200 240 99 162
1 2 359 1 0 2 3 6 9 9 5 4 359 327 251 275 298 244 224 198 215 252 180 191 163 160 148 108 94 241 254 249 220 193 238 199 224 196 204 202 225 225 215 166 167
347 347 346 347 349 350 352 353 356 359 357 355 348 341 281 266 272 217 188 195 225 245 164 150 128 187 165 176 140 187 267 186 231 233 222 229 229 203 234 238 236 224 214 185 181
336 335 336 335 338 340 340 342 345 347 349 348 339 327 227 184 241 182 180 184 180 156 143 156 167 172 181 206 160 240 243 234 265 190 192 223 155 223 226 248 7 271 210 184 189
321 323 322 326 326 329 331 333 334 337 339 341 328 298 191 227 252 190 190 193 188 182 147 173 190 166 217 189 199 228 210 225 252 253 240 207 241 253 246 248 240 243 193 197 201
315 314 316 316 320 323 325 326 327 327 329 330 311 243 180 243 219 190 199 194 201 175 148 167 177 180 149 205 225 176 256 262 266 250 239 238 248 224 243 188 220 224 224 214 210
314 312 312 314 316 318 321 321 322 321 321 320 286 206 222 261 207 197 193 201 205 188 143 134 130 195 149 207 81 331 291 275 224 223 236 213 257 236 252 196 233 225 226 220 218
312 312 312 312 314 314 315 319 318 315 315 304 223 182 252 231 202 192 169 140 118 109 114 121 115 96 281 125 144 238 248 256 159 176 166 211 277 255 267 227 245 237 226 217 217
309 308 312 314 317 315 313 318 314 309 304 208 176 190 261 195 195 200 184 148 118 93 88 108 74 104 164 225 256 213 272 231 270 210 159 213 280 257 204 235 264 260 246 228 220
314 317 319 314 317 313 313 320 308 298 160 152 126 230 175 211 160 167 173 157 125 127 130 178 141 230 206 206 258 263 245 252 261 186 215 232 258 278 273 254 264 271 260 240 220
309 318 322 326 321 324 328 339 291 205 200 223 189 268 181 147 163 179 160 135 125 192 218 105 229 240 246 230 267 267 258 261 267 196 243 255 261 269 281 275 264 271 263 246 233
298 311 321 331 328 325 335 305 42 28 296 245 250 273 223 174 253 195 167 185 180 222 145 178 239 252 357 217 228 233 260 264 280 239 219 274 273 273 267 268 270 272 270 251 239
289 299 313 332 324 330 336 220 197 142 252 280 222 239 207 171 224 205 181 161 201 203 205 230 259 80 198 207 206 227 236 255 265 323 234 293 275 238 257 263 270 261 260 251 227
291 292 305 330 314 334 318 224 173 171 258 234 223 209 133 173 243 79 195 206 202 240 195 241 247 210 198 229 205 239 230 244 263 295 280 4 291 280 252 244 264 271 244 224 215
277 282 291 322 296 254 285 197 166 157 275 40 170 78 110 207 94 153 166 158 216 183 174 224 180 190 206 229 177 249 103 170 206 255 315 254 269 279 168 244 257 261 258 223 208
257 267 261 280 252 235 260 159 216 210 241 239 158 185 166 201 169 121 149 34 27 175 245 261 112 217 213 83 119 136 113 134 143 258 254 256 225 278 229 211 248 265 229 204 196
244 246 235 231 216 148 177 192 228 232 43 195 201 191 209 186 198 188 170 180 189 179 216 196 220 170 177 135 120 193 176 278 258 226 264 152 233 261 283 242 234 254 252 185 178
239 236 230 217 222 233 151 177 239 195 210 98 161 158 199 169 213 187 177 219 229 213 216 238 255 183 183 217 207 185 216 204 261 278 288 114 250 277 227 252 247 269 263 206 215
243 224 213 210 194 186 202 215 237 230 185 178 107 209 215 224 210 185 214 230 206 193 210 209 256 100 241 107 181 163 198 231 282 112 282 255 259 238 190 255 249 252 243 240 230
213 204 218 197 182 153 196 239 232 207 154 183 220 196 229 215 190 193 199 199 230 198 225 250 257 123 125 151 50 227 138 136 199 261 260 275 282 276 239 245 215 237 237 239 222
215 198 177 185 166 167 211 235 247 242 198 201 233 243 237 238 215 219 241 214 197 200 205 207 218 202 151 204 192 169 203 225 308 225 254 268 268 82 197 233 207 221 231 240 225
226 226 169 162 186 200 227 232 216 250 241 253 244 253 246 230 238 237 246 228 177 161 172 208 203 232 238 138 318 253 232 213 225 224 234 260 271 112 46 143 196 243 252 239 229
215 199 180 175 193 209 219 238 257 235 233 213 230 222 214 238 235 237 247 199 178 175 172 168 203 239 252 212 177 212 206 230 241 258 249 234 254 255 268 290 235 242 245 250 228
236 190 160 233 267 222 217 225 229 210 237 218 281 29 168 238 235 255 250 205 187 197 16 177 172 216 239 251 93 196 227 221 224 233 253 242 260 275 275 273 277 268 233 235 240
212 213 175 179 239 235 230 228 236 240 227 201 220 224 234 247 252 257 259 250 177 158 151 175 233 238 252 267 279 280 275 257 236 242 244 258 260 263 275 276 271 272 271 270 265
265 161 173 216 222 216 218 219 228 238 227 226 223 231 231 240 239 260 244 248 239 199 218 196 246 247 253 260 263 260 262 263 266 260 254 256 262 263 268 278 282 275 268 272 270
319 274 238 183 193 207 223 227 233 238 242 234 232 231 233 226 226 241 250 257 201 230 227 208 217 210 239 228 246 252 239 247 255 261 256 254 253 267 268 265 261 271 274 265 266